Starlink 31216

operational
NORAD ID: 58857 Int'l Des: 2024-019 Owner: SPXS Country: US Constellation: starlink
LEOCIRCULAR

Über Starlink 31216

Beschreibung wird geladen...

Live-Position

3D-Globus wird geladen...

Nächste Überflüge

Höhenverlauf

Altitude vs Time

uPlot chart will show altitude changes over time

Zweizeiliger Elementsatz

1 58857U 24019E 25260.25009259 .02381179 00000-0 56393-1 0 9994
2 58857 43.0002 126.3337 0001288 313.7329 20.0754 15.37370873 5812
Epoch: 17. Sept. 2025 • Age: 17 hours

Aktueller Status

Höhe 444.4 km
Geschwindigkeit 7.65 km/s
Subsatellitenpunkt 26.63°N, 165.93°E
Startdatum 29. Jan. 2024
Alter 1.6 years
Typ internet

Technische Details

Klassifizierung Payload
Masse 730.00 kg
Trockenmasse 700.00 kg
Gesamtmasse 730.00 kg
Länge 0.30 m
Durchmesser 4.10 m
Spannweite 29.00 m
Form Box + pan
Hersteller SPXS
Bus-Typ Starlink V2M
Phasenstatus In Orbit
Besitzer/Staat SPXS/US

Große Konstellationen

Loading constellations...